COSMOS 2251 DEB, 34965

Orbit data source: Space-Track

COSMOS 2251 DEB, 34965 is space debris in LEO originally from a launch on Wed, 16 Jun 1993 UTC launched from the Plesetsk Missile And Space Complex (PKMTR). The debris from Iridium 33, an American commercial communications satellite, has been tracked extensively since its accidental collision with the defunct Russian satellite Cosmos 2251 in 2009. This event, occurring at high speed in low Earth orbit (LEO), generated thousands of pieces of space debris, significantly increasing the risk of further collisions. The Iridium 33 debris cloud has impacted space traffic management and orbital debris mitigation strategies, making it a subject of ongoing study in space situational awareness.

Loading next visibility...
Identifier
34965, 1993-036AEU
Orbit
LEO
Country
Flag of CISCIS
Related business
Manufacturer
Unknown
Mission
Spacecraft
Bus & Motor
Unknown
Mass
Unknown
Launch date (UTC)
1993-06-16 (33 years ago)
Launch vehicle
Unknown
Launch site
Plesetsk Missile And Space Complex (PKMTR)
Object type
Payload
Rocket body
Debris
Shape & HBR
Unknown shape, 0.1 m
Radar Cross Section
Small (<0.1 m²)

Expand to show TLE details & history
Last TLE update: 11 hours ago

TLE from 11 hours ago
0 COSMOS 2251 DEB
1 34965U 93036AEU 26034.41104858  .00001117  00000-0  30140-3 0  9995
2 34965  74.0514  29.8464 0024515 146.5237 213.7479 14.48863384878766
Epoch: 2026-02-03T09:51Z
TLE epoch observation values (Epoch: 2026-02-03T09:51:54.597Z)
Latitude
0.00003°
Longitude
108.27655°
Altitude
746.494 km
Speed
7.474 km/s
True Right ascension
01h 59m 23s
True Declination
0° 00' 00"
Sunlit
Object was in daylight at epoch
Visualization orbit readout
Latitude
Unknown
Longitude
Unknown
Altitude
Unknown
Speed
Unknown
Apparent Right ascension
Unknown
Apparent Declination
Unknown
Sunlit
N/A
Visualization observer readout
Local Sidereal Time
22:47:23
Azimuth
Unknown
Elevation
Unknown
Doppler factor
Unknown
Orbital elements
Apogee altitude
744.39 km
Perigee altitude
709.554 km
Semi-major axis
7,105.109 km
Eccentricity
0.00245
Inclination
74.0514°
RAAN
29.8464°
Arg. of periapsis
146.5237°
True anomaly
213.59223°
Mean anomaly
213.7479°
Eccentric anomaly
213.67003°
Mean motion
3.62399 °/min
Orbital period
99.34 mins
BSTAR
0.0003014
Loading maneuver chart data...
Computing Atmospheric mass density...

Documentation

Showing up to 5 results
|